[[{"header":{"parameterUnit":"m.s-1","parameterCategory":1,"la1":30.2991,"la2":30.254,"lo1":-89.0895,"lo2":-89.0444,"dy":0.0017,"dx":0.0017,"nx":28,"ny":28,"refTime":"2024-03-23T09:00:00:Z","depth":0,"parameterNumber":2,"parameterNumberName":"U-component_of_WINDS"},"data":[0,0,0,0,0,0,0,0,0,0,0,0,0,0,0,0,0,0,0,0,0,0,0,0,0,0,0,0,0,0,0,0,0,0,0,0,0,0,0,0,0,0,0,0,0,0,0,0,0,0,0,0,0,0,0,0,0,0,1.6997,1.6997,0,1.6934,1.6933,1.6933,1.6873,1.6873,1.6872,1.6871,1.6806,1.6805,1.6804,0,0,0,0,0,0,0,0,0,0,0,0,0,1.7065,1.7065,1.6997,1.6997,1.6996,1.6934,1.6933,1.6932,1.6874,1.6873,1.6872,1.6871,1.6806,1.6805,1.6803,0,0,0,0,0,0,0,0,0,0,0,0,0,1.7022,1.7064,1.6997,1.6959,1.6955,1.6934,1.6933,1.6932,1.6874,1.6873,1.6871,1.687,1.6806,1.6805,1.6803,1.6816,0,0,1.6798,1.6798,0,0,0,0,0,0,0,0,1.7025,1.702,1.6965,1.6962,1.6957,1.691,1.6933,1.6893,1.6874,1.6905,1.6871,1.687,1.6841,1.6837,1.6827,1.6812,1.681,1.6798,1.6797,1.6797,1.6796,0,0,0,0,0,0,0,1.7028,1.7022,1.6972,1.6965,1.6959,1.6944,1.6937,1.6925,1.688,1.6902,1.6897,1.6891,1.6839,1.6829,1.6825,1.6809,1.6798,1.6797,1.6796,1.6795,1.68,1.6801,0,0,0,0,0,0,1.7037,1.7025,1.6974,1.697,1.6989,1.6944,1.6936,1.6927,1.688,1.6872,1.6892,1.6888,1.6832,1.6827,1.6823,1.6834,1.6797,1.6795,1.6794,1.6799,1.68,1.6801,0,0,0,0,0,0,1.7039,1.7033,1.6977,1.6997,1.6988,1.6944,1.6934,1.6926,1.6916,1.6872,1.6864,1.689,1.6831,1.6825,1.6818,1.6831,1.6794,1.6793,1.6797,1.6799,1.6801,1.6857,0,0,0,0,0,0,1.7041,1.7034,1.7039,1.6997,1.6987,1.6974,1.6935,1.6925,1.6914,1.6908,1.6869,1.6861,1.683,1.682,1.6816,1.6828,1.6792,1.6796,1.6798,1.68,1.6854,1.6861,1.6866,0,0,0,0,0,1.7044,1.7057,1.7039,1.7034,1.6993,1.6975,1.6969,1.6933,1.6915,1.6919,1.6891,1.6862,1.683,1.682,1.6815,1.6827,1.6795,1.6798,1.68,1.6852,1.686,1.6866,0,0,0,0,0,0,1.7102,1.7051,1.7031,1.7031,1.7008,1.6965,1.6969,1.6943,1.6924,1.692,1.6876,1.6867,1.6865,1.6844,1.6835,1.6836,1.6809,1.681,1.685,1.6857,1.6863,1.6869,1.679,0,0,0,0,0,1.7115,1.7105,1.7061,1.7065,1.7055,1.7014,1.7005,1.6979,1.6953,1.6942,1.6913,1.6889,1.6872,1.6863,1.6846,1.685,1.6841,1.6855,1.6862,1.6867,1.6869,1.687,1.6876,1.6809,1.6809,1.6809,0,0,1.7142,1.7112,1.7109,1.7076,1.7055,1.7045,1.7006,1.6997,1.699,1.6941,1.6933,1.691,1.6879,1.6878,1.6876,1.6861,1.6885,1.687,1.6875,1.6874,1.6873,1.6879,1.6885,1.6811,1.681,1.681,0,0,1.7186,1.7162,1.7164,1.7143,1.7111,1.7084,1.7084,1.7044,1.7028,1.7019,1.6982,1.6971,1.6945,1.6924,1.691,1.6945,1.6918,1.694,1.6973,1.6974,1.6979,1.6984,1.6997,1.7002,1.6942,1.6943,1.6943,0,1.7223,1.7208,1.7168,1.7162,1.7149,1.7103,1.7104,1.7086,1.705,1.7042,1.7025,1.6991,1.6967,1.696,1.6968,1.6958,1.6957,1.6946,1.6982,1.6986,1.699,1.7002,1.7006,1.6946,1.6945,1.6945,1.6945,0,1.7255,1.7245,1.725,1.7217,1.7203,1.7201,1.7161,1.7152,1.7127,1.7101,1.7091,1.7061,1.7037,1.7032,1.7008,1.7022,1.7014,1.699,1.6962,1.7,1.701,1.7014,1.695,1.6949,1.6948,1.6947,0,0,1.7337,1.7281,1.7283,1.7268,1.7228,1.7219,1.7213,1.719,1.7184,1.7159,1.7154,1.7132,1.711,1.7094,1.7066,1.7067,1.7097,1.7043,1.7042,1.7055,1.7111,1.713,1.7136,1.7078,1.7078,1.7079,1.7113,0,1.7376,1.7365,1.7328,1.7328,1.7318,1.7273,1.7269,1.7244,1.7219,1.7206,1.7177,1.7163,1.7134,1.7125,1.7123,1.7094,1.7108,1.709,1.7073,1.7073,1.7084,1.7141,1.7162,1.7196,1.7117,1.7118,1.7118,0,1.742,1.7399,1.7398,1.7358,1.7353,1.7349,1.7325,1.7313,1.7283,1.7264,1.7246,1.7215,1.7206,1.7179,1.7166,1.7155,1.7145,1.7129,1.713,1.7128,1.7099,1.7143,1.7206,1.7212,1.7124,1.7124,1.7123,0,1.7481,1.7453,1.7448,1.7436,1.7389,1.7388,1.7368,1.7337,1.7325,1.7302,1.7294,1.7271,1.7258,1.7241,1.7204,1.7187,1.7195,1.7165,1.718,1.7181,1.7186,1.7186,1.725,1.7176,1.7176,1.7176,1.7176,0,1.753,1.7531,1.7475,1.7473,1.7473,1.743,1.7431,1.7406,1.7379,1.737,1.7329,1.7322,1.7273,1.726,1.723,1.7225,1.7219,1.7204,1.7196,1.7209,1.7211,1.7203,1.72,1.7177,1.7177,1.7177,1.7177,0,1.7599,1.7562,1.7554,1.751,1.7499,1.7501,1.7463,1.7458,1.743,1.742,1.7415,1.737,1.7352,1.7313,1.7284,1.7264,1.7266,1.7252,1.7277,1.7273,1.7291,1.729,1.7353,1.736,1.7281,1.7282,1.7282,0,1.7634,1.7634,1.7589,1.7581,1.7563,1.755,1.7537,1.7494,1.7482,1.7447,1.7447,1.7426,1.7407,1.7381,1.7345,1.7323,1.7309,1.7332,1.7305,1.7317,1.7311,1.7312,1.7312,1.7339,1.734,1.7341,1.7342,0,1.7699,1.768,1.7664,1.7641,1.7627,1.7607,1.7584,1.7579,1.753,1.7519,1.75,1.7486,1.7456,1.7436,1.7408,1.7386,1.7356,1.735,1.7352,1.7366,1.7382,1.7375,1.7295,1.7349,1.7349,1.7348,1.7348,1.7347,1.7753,1.7751,1.772,1.7703,1.7681,1.766,1.7654,1.7624,1.7608,1.7581,1.7556,1.754,1.7508,1.7468,1.7448,1.7434,1.7419,1.7423,1.7424,1.7426,1.7432,1.7382,1.7429,1.7428,1.7428,1.7428,1.7428,0,1.7818,1.7795,1.778,1.7749,1.7735,1.7707,1.768,1.767,1.7657,1.763,1.7612,1.759,1.757,1.7532,1.7508,1.7504,1.749,1.75,1.7501,1.7496,1.7446,1.7447,1.7512,1.7512,1.7512,1.7512,1.7512,1.7512,1.7851,1.7846,1.7823,1.7806,1.7783,1.7767,1.7754,1.7735,1.7713,1.7691,1.7674,1.7649,1.7617,1.7591,1.757,1.756,1.7553,1.7568,1.7553,1.7508,1.75,1.7492,1.7493,1.7567,1.7567,1.7605,1.7605,1.7605]},{"header":{"parameterUnit":"m.s-1","parameterCategory":1,"la1":30.2991,"la2":30.254,"lo1":-89.0895,"lo2":-89.0444,"dy":0.0017,"dx":0.0017,"nx":28,"ny":28,"refTime":"2024-03-23T09:00:00:Z","depth":0,"parameterNumber":3,"parameterNumberName":"V-component_of_WINDS"},"data":[0,0,0,0,0,0,0,0,0,0,0,0,0,0,0,0,0,0,0,0,0,0,0,0,0,0,0,0,0,0,0,0,0,0,0,0,0,0,0,0,0,0,0,0,0,0,0,0,0,0,0,0,0,0,0,0,0,0,0.5364,0.5368,0,0.5756,0.5761,0.5765,0.5872,0.5869,0.5867,0.5865,0.6266,0.6279,0.6291,0,0,0,0,0,0,0,0,0,0,0,0,0,0.4706,0.4717,0.5363,0.5368,0.5373,0.5756,0.5761,0.5766,0.5872,0.5869,0.5866,0.5864,0.6262,0.6277,0.6292,0,0,0,0,0,0,0,0,0,0,0,0,0,0.5034,0.4721,0.5362,0.5472,0.5486,0.5755,0.5761,0.5768,0.5873,0.5869,0.5866,0.5862,0.6257,0.6276,0.6295,0.6482,0,0,0.6353,0.6362,0,0,0,0,0,0,0,0,0.5015,0.5058,0.5451,0.5465,0.5481,0.5761,0.5676,0.6007,0.5873,0.5726,0.5865,0.5861,0.6101,0.6133,0.6214,0.6501,0.6518,0.6355,0.6367,0.6375,0.638,0,0,0,0,0,0,0,0.4992,0.5042,0.5519,0.5456,0.5475,0.5502,0.5545,0.574,0.5928,0.5738,0.5747,0.5792,0.6108,0.6195,0.6224,0.6524,0.6355,0.6372,0.6383,0.6391,0.6989,0.6994,0,0,0,0,0,0,0.4951,0.5022,0.5506,0.5531,0.5235,0.5516,0.5564,0.5675,0.5926,0.5961,0.5794,0.5795,0.6164,0.6202,0.6239,0.6479,0.6375,0.6393,0.6404,0.6985,0.699,0.6995,0,0,0,0,0,0,0.4936,0.4993,0.5491,0.5279,0.5344,0.5531,0.5655,0.5684,0.5771,0.5969,0.6003,0.5849,0.6163,0.6212,0.6422,0.6494,0.6402,0.6419,0.698,0.6987,0.6993,0.6958,0,0,0,0,0,0,0.4917,0.4987,0.506,0.528,0.5355,0.5667,0.5659,0.5695,0.5804,0.5809,0.6028,0.6061,0.6164,0.6393,0.6441,0.6519,0.6434,0.6974,0.6983,0.6991,0.6953,0.6962,0.697,0,0,0,0,0,0.4893,0.5033,0.5063,0.5121,0.545,0.5671,0.5714,0.5829,0.5809,0.5885,0.6012,0.6054,0.6477,0.6413,0.6469,0.6553,0.6971,0.6981,0.699,0.695,0.6961,0.697,0,0,0,0,0,0,0.4816,0.5064,0.51,0.5315,0.5471,0.5688,0.5787,0.5836,0.6001,0.5999,0.6134,0.6183,0.6385,0.649,0.6414,0.675,0.6725,0.6746,0.6675,0.6687,0.6695,0.6667,0.645,0,0,0,0,0,0.4824,0.4982,0.519,0.536,0.5437,0.5598,0.5698,0.5774,0.5941,0.6007,0.615,0.631,0.648,0.6589,0.6755,0.6968,0.7019,0.7054,0.7062,0.7068,0.7085,0.721,0.7229,0.7027,0.7027,0.7027,0,0,0.4842,0.4997,0.5089,0.5349,0.5479,0.5641,0.5653,0.5823,0.5945,0.6033,0.6242,0.6352,0.654,0.6753,0.6854,0.6847,0.7152,0.708,0.7083,0.7099,0.7222,0.7241,0.7258,0.7034,0.7033,0.7032,0,0,0.4959,0.5091,0.525,0.538,0.5577,0.5684,0.5721,0.5932,0.6009,0.622,0.6291,0.6438,0.6726,0.6859,0.6963,0.7133,0.7179,0.7183,0.7227,0.7347,0.7363,0.7378,0.7442,0.7463,0.7199,0.7199,0.7199,0,0.4957,0.5205,0.5324,0.5493,0.5607,0.5694,0.5857,0.5977,0.6218,0.6295,0.6282,0.6649,0.6781,0.7029,0.707,0.7151,0.72,0.716,0.7351,0.7367,0.7383,0.7446,0.7469,0.7199,0.7199,0.7199,0.7199,0,0.5194,0.5365,0.5469,0.5702,0.5826,0.599,0.6136,0.6248,0.6313,0.6421,0.6637,0.6799,0.7002,0.7065,0.7129,0.7323,0.7313,0.7324,0.7302,0.7399,0.7461,0.7486,0.7198,0.7198,0.7198,0.7199,0,0,0.5274,0.5573,0.5609,0.5718,0.5942,0.6077,0.6245,0.6445,0.654,0.6703,0.685,0.7092,0.7106,0.7224,0.7304,0.7408,0.7537,0.7408,0.7414,0.743,0.7766,0.7759,0.7785,0.7568,0.7573,0.7577,0.7752,0,0.5422,0.5729,0.5843,0.6094,0.6255,0.6342,0.6489,0.6643,0.6749,0.6901,0.7017,0.7189,0.7191,0.7264,0.7371,0.7499,0.7607,0.7487,0.7709,0.7715,0.7663,0.7817,0.7809,0.7966,0.7776,0.778,0.7783,0,0.5636,0.5805,0.6072,0.6281,0.6353,0.6483,0.6678,0.6821,0.6998,0.7068,0.7202,0.7275,0.7457,0.7421,0.7674,0.759,0.7687,0.7763,0.7772,0.7801,0.7757,0.7852,0.8019,0.8043,0.7821,0.7818,0.7816,0,0.5673,0.5966,0.6165,0.6255,0.6501,0.6592,0.6699,0.6873,0.6987,0.7156,0.7232,0.7418,0.7521,0.7665,0.7787,0.7749,0.8031,0.8004,0.8096,0.8094,0.8155,0.815,0.8343,0.821,0.8209,0.8209,0.8209,0,0.5829,0.599,0.6186,0.6309,0.6493,0.6622,0.6801,0.6913,0.7068,0.7215,0.7299,0.7436,0.7588,0.7744,0.784,0.8038,0.8083,0.8146,0.817,0.8141,0.8133,0.8209,0.8203,0.8215,0.8214,0.8213,0.8212,0,0.5901,0.6038,0.6263,0.6479,0.6537,0.6664,0.6849,0.6973,0.7082,0.7267,0.7318,0.7491,0.7679,0.7815,0.8057,0.8123,0.8336,0.8358,0.8277,0.829,0.8376,0.8368,0.8628,0.867,0.8504,0.8505,0.8506,0,0.5993,0.612,0.6351,0.6457,0.6564,0.6732,0.685,0.6982,0.7101,0.7314,0.7412,0.7607,0.777,0.8067,0.8214,0.8401,0.8431,0.8509,0.846,0.8427,0.8438,0.843,0.8445,0.8517,0.8518,0.8519,0.852,0,0.6143,0.6206,0.6372,0.6564,0.6703,0.6859,0.7017,0.7098,0.7258,0.7388,0.7583,0.7709,0.7959,0.8152,0.8354,0.8464,0.8521,0.8534,0.8566,0.8539,0.8489,0.8522,0.8301,0.8528,0.8527,0.8527,0.8526,0.8526,0.6232,0.6351,0.6533,0.6717,0.685,0.6996,0.7124,0.7251,0.7416,0.7631,0.7698,0.7901,0.8078,0.8355,0.8468,0.8629,0.8626,0.8671,0.8684,0.8694,0.8695,0.846,0.8665,0.8665,0.8665,0.8665,0.8665,0,0.639,0.6513,0.668,0.69,0.7045,0.7085,0.7262,0.7381,0.7559,0.772,0.788,0.8105,0.8294,0.8456,0.8652,0.875,0.8781,0.8797,0.8794,0.8819,0.8684,0.8639,0.877,0.877,0.877,0.8769,0.8769,0.8769,0.649,0.6694,0.6779,0.705,0.7172,0.7372,0.7471,0.7607,0.7737,0.7985,0.8143,0.8248,0.8411,0.8619,0.8795,0.8838,0.8908,0.8919,0.8968,0.884,0.8828,0.8816,0.8775,0.8932,0.8932,0.9091,0.9093,0.9094]}]]